Location: Cartignies
(50.0929°N, 3.8447°E)
Time: 15:02:21
(UTC+00:00)

Meteor 2-13 Rocket - Pass Details

Date: 12 January 2026
Orbit: 935 x 958 km, 82.5° (Epoch: 16 February)

Event Time Altitude Azimuth Distance (km) Brightness Sun altitude
Rises 18:21:01 0° 185° (S) 3,624 7.7 -20.8°
Reaches altitude 10° 18:23:30 10° 184° (S) 2,683 6.9 -21.1°
Maximum altitude 18:29:39 83° 98° (E) 973 4.3 -22.1°
Drops below altitude 10° 18:35:51 10° 12° (NNE) 2,701 6.6 -23.1°
Sets 18:38:21 0° 11° (NNE) 3,649 7.3 -23.5°
